Location: Nitra
(0.0000°N, 18.0833°E)
Time: 20:12:45
(UTC+02:00)

A-11 Canister half - Pass Details

Date: 31 March 2023
Orbit: 1526 x 1682 km, 47.3° (Epoch: 08 June)

Event Time Altitude Azimuth Distance (km) Brightness Sun altitude
Rises 01:21:31 0° 304° (NW) 4,713 - -81.6°
Reaches altitude 10° 01:24:49 10° 297° (WNW) 3,715 - -80.9°
Maximum altitude 01:33:25 42° 230° (SW) 2,070 - -78.9°
Drops below altitude 10° 01:42:01 10° 162° (SSE) 3,694 - -76.9°
Sets 01:45:19 0° 155° (SSE) 4,685 - -76.1°
